EW4276 Weather Reports


Display with metric or nautical units.
time (UTC)temp
F
wind
direction
speed
MPH
gust
MPH
rain 1hr
in
rain 24hr
in
rain mn
in
humidity
%
barometer
mb
20260510130326 63 163 5.0 9.0 0.00 0.00 0.00 65 1013.2
20260510125816 63 194 3.0 7.0 0.00 0.00 0.00 65 1013.3
20260510125332 63 177 3.0 8.0 0.00 0.00 0.00 65 1013.2
20260510124824 63 181 4.0 8.0 0.00 0.00 0.00 65 1013.2
20260510124317 63 161 4.0 7.0 0.00 0.00 0.00 65 1013.0
20260510123829 63 138 3.0 9.0 0.00 0.00 0.00 66 1012.8
20260510123320 62 177 5.0 10.0 0.00 0.00 0.00 66 1012.7
20260510122832 62 155 5.0 6.0 0.00 0.00 0.00 65 1012.5
20260510122323 62 185 4.0 7.0 0.00 0.00 0.00 66 1012.5
20260510121814 62 169 6.0 8.0 0.00 0.00 0.00 64 1012.7
20260510121329 62 190 6.0 8.0 0.00 0.00 0.00 66 1012.5
20260510120821 61 173 4.0 7.0 0.00 0.00 0.00 67 1012.5
20260510120333 61 166 5.0 8.0 0.00 0.00 0.00 67 1012.5
20260510115822 61 166 4.0 7.0 0.00 0.00 0.00 67 1012.5
20260510115314 61 180 5.0 9.0 0.00 0.00 0.00 67 1012.6
20260510114826 61 146 4.0 7.0 0.00 0.00 0.00 68 1012.6
20260510114319 60 169 4.0 7.0 0.00 0.00 0.00 68 1012.7
20260510113831 60 179 4.0 7.0 0.00 0.00 0.00 67 1012.6
20260510113343 60 170 3.0 6.0 0.00 0.00 0.00 68 1012.5
20260510112818 59 177 5.0 6.0 0.00 0.00 0.00 68 1012.5
20260510112330 59 165 4.0 6.0 0.00 0.00 0.00 68 1012.4
20260510111843 58 169 4.0 6.0 0.00 0.00 0.00 69 1012.4
20260510111313 58 181 2.0 5.0 0.00 0.00 0.00 69 1012.3
20260510110825 58 179 3.0 5.0 0.00 0.00 0.00 68 1012.3
20260510110317 58 155 3.0 5.0 0.00 0.00 0.00 68 1012.1
20260510105827 59 173 2.0 6.0 0.00 0.00 0.00 68 1012.1
20260510105339 59 156 3.0 8.0 0.00 0.00 0.00 67 1012.0
20260510104830 59 173 4.0 8.0 0.00 0.00 0.00 66 1011.8
20260510104326 59 167 4.0 7.0 0.00 0.00 0.00 66 1011.8
20260510103838 59 173 4.0 7.0 0.00 0.00 0.00 66 1011.7
20260510103349 59 169 5.0 7.0 0.00 0.00 0.00 66 1011.6
20260510102820 58 180 5.0 6.0 0.00 0.00 0.00 67 1011.4
20260510102352 58 171 4.0 8.0 0.00 0.00 0.00 67 1011.3
20260510101823 58 157 5.0 9.0 0.00 0.00 0.00 68 1011.2
20260510101314 58 176 5.0 8.0 0.00 0.00 0.00 68 1011.2
20260510100827 58 175 4.0 7.0 0.00 0.00 0.00 68 1011.2
20260510100339 58 164 5.0 8.0 0.00 0.00 0.00 68 1011.1
20260510095848 58 170 5.0 8.0 0.00 0.00 0.00 68 1011.1
20260510095320 58 161 4.0 7.0 0.00 0.00 0.00 68 1011.0
20260510094816 58 163 5.0 7.0 0.00 0.00 0.00 68 1010.9
20260510094327 58 170 5.0 7.0 0.00 0.00 0.00 68 1010.9
20260510093819 58 187 5.0 8.0 0.00 0.00 0.00 67 1010.8
20260510093350 59 180 5.0 8.0 0.00 0.00 0.00 67 1010.8
20260510092821 58 168 5.0 7.0 0.00 0.00 0.00 68 1010.8
20260510092333 58 170 5.0 7.0 0.00 0.00 0.00 68 1010.7
20260510091846 58 170 5.0 7.0 0.00 0.00 0.00 68 1010.8
20260510091316 58 175 4.0 7.0 0.00 0.00 0.00 68 1010.8
20260510090829 57 165 4.0 6.0 0.00 0.00 0.00 69 1010.7
20260510090340 57 167 4.0 6.0 0.00 0.00 0.00 70 1010.8
20260510085813 57 186 3.0 5.0 0.00 0.00 0.00 69 1010.8
20260510085326 58 163 3.0 5.0 0.00 0.00 0.00 68 1010.7
20260510084818 58 177 2.0 5.0 0.00 0.00 0.00 68 1010.7
20260510084350 58 213 4.0 5.0 0.00 0.00 0.00 68 1010.7
20260510083821 57 178 3.0 5.0 0.00 0.00 0.00 69 1010.6
20260510083333 58 177 4.0 5.0 0.00 0.00 0.00 69 1010.7
20260510082826 58 178 3.0 5.0 0.00 0.00 0.00 68 1010.7
20260510082316 58 168 2.0 6.0 0.00 0.00 0.00 68 1010.6
20260510081828 58 178 3.0 5.0 0.00 0.00 0.00 68 1010.6
20260510081324 58 188 2.0 6.0 0.00 0.00 0.00 67 1010.6
20260510080816 58 169 3.0 6.0 0.00 0.00 0.00 67 1010.6
20260510080328 58 170 5.0 7.0 0.00 0.00 0.00 67 1010.6
20260510075817 58 169 4.0 7.0 0.00 0.00 0.00 67 1010.6
20260510075329 58 163 4.0 7.0 0.00 0.00 0.00 67 1010.6
20260510074821 58 174 3.0 8.0 0.00 0.00 0.00 68 1010.6
20260510074314 58 174 4.0 7.0 0.00 0.00 0.00 67 1010.6
20260510073825 58 165 3.0 6.0 0.00 0.00 0.00 67 1010.6
20260510073321 58 164 2.0 6.0 0.00 0.00 0.00 66 1010.6
20260510072833 59 174 4.0 5.0 0.00 0.00 0.00 65 1010.6
20260510072326 59 175 5.0 6.0 0.00 0.00 0.00 65 1010.5
20260510071817 58 169 3.0 4.0 0.00 0.00 0.00 65 1010.6
20260510071349 59 173 1.0 5.0 0.00 0.00 0.00 65 1010.5
20260510070820 59 175 3.0 6.0 0.00 0.00 0.00 65 1010.5
20260510070332 59 165 2.0 7.0 0.00 0.00 0.00 65 1010.5
20260510065822 59 176 4.0 7.0 0.00 0.00 0.00 66 1010.4
20260510065314 58 182 4.0 6.0 0.00 0.00 0.00 66 1010.3
20260510064831 59 176 4.0 6.0 0.00 0.00 0.00 65 1010.3
20260510064322 59 175 5.0 7.0 0.00 0.00 0.00 65 1010.1
20260510063814 59 176 4.0 7.0 0.00 0.00 0.00 64 1010.2
20260510063325 59 170 4.0 8.0 0.00 0.00 0.00 64 1010.2
20260510062817 59 163 4.0 6.0 0.00 0.00 0.00 63 1010.2
20260510062329 60 173 3.0 6.0 0.00 0.00 0.00 63 1010.3
20260510061841 60 184 4.0 7.0 0.00 0.00 0.00 63 1010.4
20260510061332 59 167 4.0 6.0 0.00 0.00 0.00 63 1010.4
20260510060824 59 174 4.0 6.0 0.00 0.00 0.00 63 1010.3
20260510060319 60 167 4.0 7.0 0.00 0.00 0.00 63 1010.4
20260510055829 60 182 4.0 6.0 0.00 0.00 0.00 62 1010.4
20260510055341 60 178 3.0 5.0 0.00 0.00 0.00 62 1010.5
20260510054832 60 177 3.0 6.0 0.00 0.00 0.00 62 1010.5
20260510054323 60 171 5.0 7.0 0.00 0.00 0.00 62 1010.6
20260510053814 60 164 4.0 7.0 0.00 0.00 0.00 62 1010.6
20260510053326 60 165 4.0 7.0 0.00 0.00 0.00 61 1010.5
20260510052818 60 169 4.0 8.0 0.00 0.00 0.00 61 1010.6
20260510052315 60 187 4.0 8.0 0.00 0.00 0.00 61 1010.6
20260510051827 60 165 4.0 9.0 0.00 0.00 0.00 61 1010.5
20260510051319 60 160 4.0 7.0 0.00 0.00 0.00 61 1010.5
20260510050851 60 164 4.0 9.0 0.00 0.00 0.00 61 1010.4
20260510050322 60 179 5.0 7.0 0.00 0.00 0.00 61 1010.5
20260510045832 60 170 4.0 7.0 0.00 0.00 0.00 62 1010.5
20260510045343 60 159 4.0 7.0 0.00 0.00 0.00 62 1010.4
20260510044814 60 157 4.0 6.0 0.00 0.00 0.00 63 1010.4
20260510044326 60 150 4.0 7.0 0.00 0.00 0.00 62 1010.4
20260510043818 60 165 3.0 7.0 0.00 0.00 0.00 62 1010.3
20260510043313 60 171 4.0 7.0 0.00 0.00 0.00 62 1010.3
20260510042826 60 178 4.0 7.0 0.00 0.00 0.00 61 1010.2
20260510042317 61 167 3.0 8.0 0.00 0.00 0.00 61 1010.3
20260510041829 61 169 5.0 8.0 0.00 0.00 0.00 60 1010.3
20260510041322 61 158 4.0 7.0 0.00 0.00 0.00 60 1010.2
20260510040854 61 164 4.0 6.0 0.00 0.00 0.00 61 1010.2
20260510040324 60 149 5.0 7.0 0.00 0.00 0.00 62 1010.2
20260510035813 60 173 5.0 7.0 0.00 0.00 0.00 62 1010.3
20260510035325 60 168 3.0 6.0 0.00 0.00 0.00 64 1010.3
20260510034821 60 163 4.0 7.0 0.00 0.00 0.00 64 1010.4
20260510034313 60 178 4.0 8.0 0.00 0.00 0.00 64 1010.4
20260510033825 60 168 5.0 6.0 0.00 0.00 0.00 65 1010.4
20260510033337 60 171 4.0 5.0 0.00 0.00 0.00 65 1010.3
20260510032827 60 170 3.0 5.0 0.00 0.00 0.00 66 1010.3
20260510032318 60 173 4.0 5.0 0.00 0.00 0.00 67 1010.2
20260510031830 59 176 2.0 4.0 0.00 0.00 0.00 67 1010.2
20260510031322 59 175 1.0 5.0 0.00 0.00 0.00 68 1010.2
20260510030818 60 176 2.0 6.0 0.00 0.00 0.00 67 1010.3
20260510030350 60 179 2.0 7.0 0.00 0.00 0.00 67 1010.3
20260510025819 60 172 0.0 4.0 0.00 0.00 0.00 68 1010.3
20260510025332 60 172 3.0 5.0 0.00 0.00 0.00 68 1010.3
20260510024843 60 177 0.0 2.0 0.00 0.00 0.00 68 1010.3
20260510024314 60 181 0.0 2.0 0.00 0.00 0.00 67 1010.3
20260510023826 60 181 0.0 2.0 0.00 0.00 0.00 67 1010.2
20260510023319 60 181 1.0 2.0 0.00 0.00 0.00 65 1010.2
20260510022831 61 179 0.0 1.0 0.00 0.00 0.00 64 1010.2
20260510022322 61 179 0.0 3.0 0.00 0.00 0.00 63 1010.1
20260510021818 61 178 1.0 3.0 0.00 0.00 0.00 63 1010.1
20260510021330 61 174 2.0 4.0 0.00 0.00 0.00 62 1010.0
20260510020822 61 174 2.0 4.0 0.00 0.00 0.00 62 1009.8
20260510020314 61 170 0.0 2.0 0.00 0.00 0.00 62 1009.8
20260510015844 61 171 0.0 0.0 0.00 0.00 0.00 63 1009.7
20260510015315 61 171 0.0 0.0 0.00 0.00 0.00 62 1009.6
20260510014827 61 171 0.0 0.0 0.00 0.00 0.00 61 1009.5
20260510014339 62 171 0.0 0.0 0.00 0.00 0.00 61 1009.5
20260510013830 62 171 0.0 0.0 0.00 0.00 0.00 61 1009.4
20260510013342 62 171 0.0 0.0 0.00 0.00 0.00 60 1009.3
20260510012837 62 171 0.0 0.0 0.00 0.00 0.00 60 1009.2
20260510012328 62 171 0.0 0.0 0.00 0.00 0.00 60 1009.2
20260510011820 62 171 0.0 2.0 0.00 0.00 0.00 60 1009.1
20260510011332 61 172 0.0 2.0 0.00 0.00 0.00 61 1009.1
20260510010824 60 171 0.0 2.0 0.00 0.00 0.00 62 1009.0
20260510010315 60 171 0.0 0.0 0.00 0.00 0.00 63 1008.9
20260510005825 60 171 0.0 0.0 0.00 0.00 0.00 63 1008.8
20260510005318 60 171 0.0 0.0 0.00 0.00 0.00 63 1008.6
20260510004814 61 171 0.0 0.0 0.00 0.00 0.00 63 1008.6
20260510004326 61 171 0.0 0.0 0.00 0.00 0.00 62 1008.6
20260510003818 62 171 0.0 0.0 0.00 0.00 0.00 61 1008.5
20260510003330 62 171 0.0 0.0 0.00 0.00 0.00 59 1008.5
20260510002822 63 171 0.0 0.0 0.00 0.00 0.00 59 1008.4
20260510002314 64 171 0.0 0.0 0.00 0.00 0.00 58 1008.3
20260510001846 64 171 0.0 0.0 0.00 0.00 0.00 58 1008.3
20260510001316 64 171 0.0 0.0 0.00 0.00 0.00 57 1008.3
20260510000828 64 171 0.0 1.0 0.00 0.00 0.00 57 1008.2
20260510000326 64 171 0.0 1.0 0.00 0.00 0.00 57 1008.2
20260509235813 64 171 0.0 0.0 0.00 0.00 0.00 57 1008.2
20260509235325 64 171 0.0 0.0 0.00 0.00 0.00 56 1008.2
20260509234816 64 171 0.0 0.0 0.00 0.00 0.00 56 1008.2
20260509234328 64 171 0.0 0.0 0.00 0.00 0.00 56 1008.2
20260509233820 65 171 0.0 0.0 0.00 0.00 0.00 55 1008.2
20260509233331 65 171 0.0 0.0 0.00 0.00 0.00 56 1008.2
20260509232823 66 198 0.0 0.0 0.00 0.00 0.00 56 1008.2
20260509232319 66 198 0.0 1.0 0.00 0.00 0.00 56 1008.3
20260509231852 66 198 0.0 2.0 0.00 0.00 0.00 55 1008.3
20260509231323 66 198 1.0 2.0 0.00 0.00 0.00 55 1008.3
20260509230814 66 226 0.0 3.0 0.00 0.00 0.00 54 1008.3
20260509230326 66 296 0.0 3.0 0.00 0.00 0.00 55 1008.2
20260509225815 66 12 1.0 3.0 0.00 0.00 0.00 56 1008.2
20260509225347 66 15 0.0 3.0 0.00 0.00 0.00 57 1008.3
20260509224818 67 10 0.0 3.0 0.00 0.00 0.00 56 1008.3
20260509224350 66 291 0.0 3.0 0.00 0.00 0.00 54 1008.4
20260509223821 66 217 0.0 2.0 0.00 0.00 0.00 54 1008.4
20260509223317 66 198 0.0 2.0 0.00 0.00 0.00 55 1008.3
20260509222828 66 258 0.0 2.0 0.00 0.00 0.00 55 1008.4
20260509222320 66 258 0.0 3.0 0.00 0.00 0.00 55 1008.4
20260509221832 66 13 0.0 4.0 0.00 0.00 0.00 58 1008.3
20260509221324 66 313 1.0 4.0 0.00 0.00 0.00 56 1008.4
20260509220817 66 202 0.0 3.0 0.00 0.00 0.00 55 1008.3
20260509220329 66 202 1.0 3.0 0.00 0.00 0.00 54 1008.3
20260509215837 66 213 2.0 3.0 0.00 0.00 0.00 54 1008.4
20260509215329 67 238 0.0 1.0 0.00 0.00 0.00 52 1008.2
20260509214824 67 238 0.0 1.0 0.00 0.00 0.00 53 1008.2
20260509214317 67 236 0.0 3.0 0.00 0.00 0.00 52 1008.3
20260509213849 67 236 1.0 3.0 0.00 0.00 0.00 53 1008.2
20260509213320 67 287 1.0 4.0 0.00 0.00 0.00 56 1008.3
20260509212831 67 42 2.0 4.0 0.00 0.00 0.00 54 1008.2
20260509212323 67 44 0.0 4.0 0.00 0.00 0.00 55 1008.2
20260509211815 66 40 3.0 4.0 0.00 0.00 0.00 55 1008.2
20260509211327 66 46 2.0 4.0 0.00 0.00 0.00 58 1008.2
20260509210819 66 18 1.0 3.0 0.00 0.00 0.00 58 1008.1
20260509210315 66 19 2.0 3.0 0.00 0.00 0.00 56 1008.1
20260509205826 66 22 0.0 2.0 0.00 0.00 0.00 58 1008.1
20260509205317 66 302 0.0 3.0 0.00 0.00 0.00 56 1008.1
20260509204830 66 273 0.0 3.0 0.00 0.00 0.00 56 1008.1
20260509204342 66 272 0.0 2.0 0.00 0.00 0.00 55 1008.1
20260509203833 66 167 0.0 2.0 0.00 0.00 0.00 55 1008.1
20260509203324 66 171 0.0 4.0 0.00 0.00 0.00 59 1008.1
20260509202816 66 150 1.0 4.0 0.00 0.00 0.00 57 1008.2
20260509202327 66 152 0.0 3.0 0.00 0.00 0.00 56 1008.2
20260509201823 66 153 1.0 4.0 0.00 0.00 0.00 56 1008.1
20260509201315 66 152 1.0 4.0 0.00 0.00 0.00 56 1008.2
20260509200827 66 154 1.0 5.0 0.00 0.00 0.00 55 1008.2
20260509200318 66 140 1.0 5.0 0.00 0.00 0.00 55 1008.1
20260509195827 66 155 2.0 5.0 0.00 0.00 0.00 58 1008.1
20260509195320 66 163 2.0 4.0 0.00 0.00 0.00 57 1008.1
20260509194832 65 155 1.0 5.0 0.00 0.00 0.00 55 1008.2
20260509194324 65 154 3.0 7.0 0.00 0.00 0.00 56 1008.2
20260509193819 65 173 5.0 7.0 0.00 0.00 0.00 56 1008.3
20260509193352 65 148 4.0 7.0 0.00 0.00 0.00 55 1008.3
20260509192821 66 172 3.0 6.0 0.00 0.00 0.00 57 1008.3
20260509192313 66 278 1.0 3.0 0.00 0.00 0.00 59 1008.4
20260509191845 66 53 0.0 7.0 0.00 0.00 0.00 58 1008.4
20260509191316 66 71 1.0 9.0 0.00 0.00 0.00 58 1008.3
20260509190829 66 170 3.0 9.0 0.00 0.00 0.00 55 1008.3
20260509190321 67 152 0.0 7.0 0.00 0.00 0.00 58 1008.3
20260509185831 67 162 4.0 14.0 0.00 0.00 0.00 55 1008.3
20260509185327 67 178 6.0 15.0 0.00 0.00 0.00 55 1008.4
20260509184819 66 170 7.0 12.0 0.00 0.00 0.00 56 1008.4
20260509184352 66 171 6.0 12.0 0.00 0.00 0.00 56 1008.4
20260509183822 66 170 6.0 12.0 0.00 0.00 0.00 56 1008.4
20260509183314 66 166 4.0 10.0 0.00 0.00 0.00 59 1008.5
20260509182847 65 131 5.0 10.0 0.00 0.00 0.00 59 1008.6
20260509182317 66 184 5.0 9.0 0.00 0.00 0.00 59 1008.6
20260509181828 65 61 3.0 6.0 0.00 0.00 0.00 65 1008.8
20260509181340 64 165 3.0 7.0 0.00 0.00 0.00 63 1008.9
20260509180831 64 48 2.0 6.0 0.00 0.00 0.00 64 1008.9
20260509180328 64 154 5.0 10.0 0.00 0.00 0.00 64 1008.9
20260509175817 64 169 2.0 10.0 0.00 0.00 0.00 68 1009.1
20260509175329 63 169 2.0 14.0 0.00 0.00 0.00 63 1009.0
20260509174841 63 144 6.0 13.0 0.00 0.00 0.00 63 1009.0
20260509174332 62 173 3.0 11.0 0.00 0.00 0.00 68 1009.0
20260509173824 62 171 6.0 11.0 0.00 0.00 0.00 65 1009.0
20260509173317 61 192 2.0 6.0 0.00 0.00 0.00 69 1009.1
20260509172828 61 290 1.0 7.0 0.00 0.00 0.00 69 1009.2
20260509172321 61 175 3.0 7.0 0.00 0.00 0.00 71 1009.4
20260509171817 60 54 1.0 6.0 0.00 0.00 0.00 71 1009.7
20260509171329 60 158 2.0 5.0 0.00 0.00 0.00 71 1009.8
20260509170822 60 37 1.0 5.0 0.00 0.00 0.00 72 1009.9
20260509170333 59 65 1.0 4.0 0.00 0.00 0.00 72 1010.0
20260509165822 59 178 2.0 5.0 0.00 0.00 0.00 71 1009.9
20260509165354 59 53 1.0 5.0 0.00 0.00 0.00 70 1010.0
20260509164844 59 44 2.0 5.0 0.00 0.00 0.00 70 1010.0
20260509164315 59 17 2.0 5.0 0.00 0.00 0.00 71 1010.1
20260509163827 59 33 1.0 5.0 0.00 0.00 0.00 70 1010.2
20260509163323 59 15 2.0 5.0 0.00 0.00 0.00 72 1010.3
20260509162815 59 296 3.0 7.0 0.00 0.00 0.00 69 1010.3
20260509162327 59 310 3.0 7.0 0.00 0.00 0.00 71 1010.3
20260509161818 58 288 3.0 8.0 0.00 0.00 0.00 71 1010.2
20260509161329 58 303 4.0 8.0 0.00 0.00 0.00 71 1010.1
20260509160821 58 23 3.0 7.0 0.00 0.00 0.00 72 1010.1
20260509160353 58 300 3.0 8.0 0.00 0.00 0.00 70 1010.1
20260509155842 58 313 4.0 8.0 0.00 0.00 0.00 69 1010.0
20260509155313 59 49 4.0 8.0 0.00 0.00 0.00 70 1010.0
20260509154825 58 19 4.0 8.0 0.00 0.00 0.00 72 1010.0
20260509154320 58 360 4.0 8.0 0.00 0.00 0.00 72 1010.1
20260509153833 58 297 4.0 6.0 0.00 0.00 0.00 72 1010.1
20260509153324 58 304 4.0 6.0 0.00 0.00 0.00 71 1010.2
20260509152816 59 288 3.0 8.0 0.00 0.00 0.00 69 1010.2
20260509152328 59 311 4.0 8.0 0.00 0.00 0.00 70 1010.1
20260509151820 59 360 3.0 8.0 0.00 0.00 0.00 70 1010.2
20260509151332 59 305 2.0 8.0 0.00 0.00 0.00 71 1010.1
20260509150845 59 303 3.0 5.0 0.00 0.00 0.00 70 1010.2
20260509150320 58 313 0.0 6.0 0.00 0.00 0.00 71 1010.2
20260509145852 58 13 2.0 8.0 0.00 0.00 0.00 72 1010.2
20260509145323 58 307 3.0 8.0 0.00 0.00 0.00 74 1010.1
20260509144815 58 313 2.0 7.0 0.00 0.00 0.00 72 1010.1
20260509144327 58 297 3.0 9.0 0.00 0.00 0.00 72 1010.1
20260509143819 58 304 4.0 9.0 0.00 0.00 0.00 74 1010.1
20260509143351 57 45 5.0 8.0 0.00 0.00 0.00 74 1010.1
20260509142822 57 313 4.0 6.0 0.00 0.00 0.00 73 1010.3
20260509142314 57 19 4.0 6.0 0.00 0.00 0.00 73 1010.3
20260509141827 57 9 3.0 6.0 0.00 0.00 0.00 74 1010.4
20260509141322 57 294 3.0 5.0 0.00 0.00 0.00 72 1010.4
20260509140814 56 24 0.0 3.0 0.00 0.00 0.00 74 1010.4
20260509140326 56 24 1.0 2.0 0.00 0.00 0.00 75 1010.5
20260509135817 55 284 0.0 2.0 0.00 0.00 0.00 74 1010.5
20260509135329 55 284 0.0 2.0 0.00 0.00 0.00 74 1010.4
20260509134820 55 284 1.0 2.0 0.00 0.00 0.00 73 1010.5
20260509134352 55 169 0.0 0.0 0.00 0.00 0.00 73 1010.4
20260509133844 55 169 0.0 1.0 0.00 0.00 0.00 73 1010.3
20260509133316 55 169 0.0 2.0 0.00 0.00 0.00 74 1010.4
20260509132831 55 171 0.0 5.0 0.00 0.00 0.00 74 1010.4
20260509132323 54 164 3.0 5.0 0.00 0.00 0.00 75 1010.2
20260509131815 54 49 0.0 4.0 0.00 0.00 0.00 75 1010.1
20260509131327 54 59 1.0 8.0 0.00 0.00 0.00 74 1010.1
20260509130819 54 311 3.0 9.0 0.00 0.00 0.00 75 1009.9